TimeEST,TemperatureF,Dew PointF,Humidity,Sea Level PressureIn,VisibilityMPH,Wind Direction,Wind SpeedMPH,Gust SpeedMPH,PrecipitationIn,Events,Conditions,WindDirDegrees,DateUTC
12:15 AM,3.2,1.4,92,30.34,10.0,Calm,Calm,-,N/A,,Clear,0,2012-01-22 05:15:00
12:35 AM,1.4,-0.4,92,30.36,10.0,Calm,Calm,-,N/A,,Clear,0,2012-01-22 05:35:00
1:15 AM,1.4,-0.4,92,30.38,10.0,Calm,Calm,-,N/A,,Clear,0,2012-01-22 06:15:00
1:35 AM,1.4,-0.4,92,30.38,10.0,Calm,Calm,-,N/A,,Clear,0,2012-01-22 06:35:00
1:55 AM,1.4,-2.2,85,30.39,10.0,Calm,Calm,-,N/A,,Clear,0,2012-01-22 06:55:00
2:15 AM,1.4,-0.4,92,30.40,10.0,Calm,Calm,-,N/A,,Clear,0,2012-01-22 07:15:00
2:55 AM,-0.4,-0.4,100,30.42,10.0,Calm,Calm,-,N/A,,Clear,0,2012-01-22 07:55:00
3:15 AM,-0.4,-5.8,78,30.42,10.0,South,3.5,-,N/A,,Clear,190,2012-01-22 08:15:00
3:55 AM,-0.4,-5.8,78,30.43,10.0,Calm,Calm,-,N/A,,Clear,0,2012-01-22 08:55:00
4:15 AM,-0.4,-5.8,78,30.45,10.0,Calm,Calm,-,N/A,,Clear,0,2012-01-22 09:15:00
4:35 AM,-2.2,-5.8,85,30.45,10.0,Calm,Calm,-,N/A,,Clear,0,2012-01-22 09:35:00
4:55 AM,-2.2,-7.6,78,30.46,10.0,SSW,3.5,-,N/A,,Clear,200,2012-01-22 09:55:00
5:15 AM,-2.2,-4.0,92,30.47,10.0,Calm,Calm,-,N/A,,Clear,0,2012-01-22 10:15:00
5:35 AM,-2.2,-7.6,78,30.47,10.0,Calm,Calm,-,N/A,,Clear,0,2012-01-22 10:35:00
6:15 AM,-2.2,-5.8,85,30.49,10.0,Calm,Calm,-,N/A,,Clear,0,2012-01-22 11:15:00
6:35 AM,-2.2,-5.8,85,30.50,10.0,Calm,Calm,-,N/A,,Clear,0,2012-01-22 11:35:00
6:55 AM,-4.0,-9.4,78,30.51,10.0,Calm,Calm,-,N/A,,Clear,0,2012-01-22 11:55:00
7:15 AM,-4.0,-5.8,92,30.52,10.0,Calm,Calm,-,N/A,,Clear,0,2012-01-22 12:15:00
7:35 AM,-4.0,-11.2,71,30.53,10.0,Calm,Calm,-,N/A,,Clear,0,2012-01-22 12:35:00
7:55 AM,-4.0,-4.0,100,30.53,10.0,Calm,Calm,-,N/A,,Clear,0,2012-01-22 12:55:00
8:15 AM,-2.2,-7.6,78,30.55,10.0,Calm,Calm,-,N/A,,Clear,0,2012-01-22 13:15:00
8:35 AM,-0.4,-2.2,92,30.55,10.0,Calm,Calm,-,N/A,,Clear,0,2012-01-22 13:35:00
8:55 AM,1.4,-2.2,85,30.54,10.0,Calm,Calm,-,N/A,,Clear,0,2012-01-22 13:55:00
9:15 AM,3.2,1.4,92,30.55,10.0,Calm,Calm,-,N/A,,Clear,0,2012-01-22 14:15:00
10:15 AM,6.8,1.4,79,30.56,10.0,Calm,Calm,-,N/A,,Clear,0,2012-01-22 15:15:00
10:35 AM,8.6,3.2,79,30.56,10.0,Calm,Calm,-,N/A,,Clear,0,2012-01-22 15:35:00
10:55 AM,10.4,5.0,79,30.55,10.0,Calm,Calm,-,N/A,,Clear,0,2012-01-22 15:55:00
11:15 AM,12.2,6.8,79,30.54,10.0,Calm,Calm,-,N/A,,Clear,0,2012-01-22 16:15:00
11:35 AM,14.0,6.8,73,30.53,10.0,Calm,Calm,-,N/A,,Clear,0,2012-01-22 16:35:00
11:55 AM,15.8,6.8,68,30.53,10.0,Calm,Calm,-,N/A,,Clear,0,2012-01-22 16:55:00
12:15 PM,17.6,6.8,63,30.52,10.0,Calm,Calm,-,N/A,,Clear,0,2012-01-22 17:15:00
12:55 PM,21.2,8.6,58,30.51,10.0,Calm,Calm,-,N/A,,Clear,0,2012-01-22 17:55:00
1:15 PM,23.0,5.0,46,30.50,10.0,Calm,Calm,-,N/A,,Clear,0,2012-01-22 18:15:00
1:35 PM,23.0,3.2,43,30.50,10.0,Calm,Calm,-,N/A,,Clear,0,2012-01-22 18:35:00
1:55 PM,24.8,8.6,50,30.50,10.0,Calm,Calm,-,N/A,,Clear,0,2012-01-22 18:55:00
2:15 PM,24.8,6.8,46,30.50,10.0,Calm,Calm,-,N/A,,Clear,0,2012-01-22 19:15:00
2:35 PM,26.6,8.6,47,30.50,10.0,Calm,Calm,-,N/A,,Clear,0,2012-01-22 19:35:00
3:15 PM,26.6,8.6,47,30.49,10.0,Calm,Calm,-,N/A,,Clear,0,2012-01-22 20:15:00
3:35 PM,26.6,8.6,47,30.48,10.0,SSW,3.5,-,N/A,,Clear,200,2012-01-22 20:35:00
4:15 PM,24.8,10.4,54,30.50,10.0,Calm,Calm,-,N/A,,Clear,0,2012-01-22 21:15:00
4:35 PM,24.8,14.0,64,30.50,10.0,Calm,Calm,-,N/A,,Clear,0,2012-01-22 21:35:00
4:55 PM,21.2,15.8,80,30.50,10.0,Calm,Calm,-,N/A,,Clear,0,2012-01-22 21:55:00
5:15 PM,19.4,15.8,86,30.50,10.0,Calm,Calm,-,N/A,,Clear,0,2012-01-22 22:15:00
5:55 PM,17.6,12.2,79,30.50,10.0,Calm,Calm,-,N/A,,Clear,0,2012-01-22 22:55:00
6:15 PM,17.6,12.2,79,30.50,10.0,Calm,Calm,-,N/A,,Clear,0,2012-01-22 23:15:00
6:35 PM,15.8,12.2,86,30.50,10.0,Calm,Calm,-,N/A,,Clear,0,2012-01-22 23:35:00
7:15 PM,15.8,10.4,79,30.51,10.0,Calm,Calm,-,N/A,,Clear,0,2012-01-23 00:15:00
7:35 PM,15.8,10.4,79,30.51,10.0,Calm,Calm,-,N/A,,Partly Cloudy,0,2012-01-23 00:35:00
8:15 PM,14.0,8.6,79,30.51,10.0,Calm,Calm,-,N/A,,Scattered Clouds,0,2012-01-23 01:15:00
8:35 PM,12.2,8.6,85,30.52,10.0,Calm,Calm,-,N/A,,Scattered Clouds,0,2012-01-23 01:35:00
8:55 PM,14.0,10.4,86,30.53,10.0,Calm,Calm,-,N/A,,Overcast,0,2012-01-23 01:55:00
9:15 PM,12.2,10.4,92,30.52,10.0,Calm,Calm,-,N/A,,Overcast,0,2012-01-23 02:15:00
9:35 PM,14.0,10.4,86,30.50,10.0,Calm,Calm,-,N/A,,Overcast,0,2012-01-23 02:35:00
9:55 PM,15.8,12.2,86,30.49,10.0,Calm,Calm,-,N/A,,Overcast,0,2012-01-23 02:55:00
10:15 PM,15.8,12.2,86,30.50,10.0,Calm,Calm,-,N/A,,Overcast,0,2012-01-23 03:15:00
10:55 PM,17.6,14.0,86,30.50,10.0,Calm,Calm,-,N/A,,Overcast,0,2012-01-23 03:55:00
11:15 PM,17.6,14.0,86,30.49,10.0,Calm,Calm,-,N/A,,Overcast,0,2012-01-23 04:15:00
11:35 PM,17.6,15.8,93,30.48,10.0,Calm,Calm,-,N/A,,Overcast,0,2012-01-23 04:35:00
11:55 PM,19.4,15.8,86,30.48,10.0,Calm,Calm,-,N/A,,Overcast,0,2012-01-23 04:55:00